Weather Roundup
Issued by NWS

Home | Current Version | Previous Version | Graphics & Text | Print | Product List | Glossary Off
Versions: 1 2 3 4 5 6 7 8 9 10 11 12 13 14 15 16 17 18 19 20 21 22 23 24 25 26 27 28 29 30 31 32 33 34 35 36 37 38 39 40 41 42 43 44 45 46 47 48 49 50

833
NZUS93 KARX 291010
HRRWXR

CURRENT HOURLY OBSERVATIONS ACROSS
MUCH OF THE UPPER MISSISSIPPI VALLEY
NATIONAL WEATHER SERVICE LA CROSSE WI
500 AM CDT WED MAR 29 2017


...SOUTHEAST MINNESOTA...


CITY           SKY/WX    TMP DP  RH WIND       PRES   REMARKS
ROCHESTER      PTCLDY    39  34  82 E8        30.19F WCI  33
ROCHESTER/MAYO FAIR      43  35  72 E5        30.20S
WINONA         CLOUDY    36  36 100 CALM      30.23S
AUSTIN         CLOUDY    41  36  81 E7        30.17S
ALBERT LEA     CLOUDY    41  36  81 E5        30.16S
DODGE CENTER   CLOUDY    39  34  81 E7        30.19S WCI  34
PRESTON        CLOUDY    39  34  81 E6        30.20S WCI  35
OWATONNA       CLOUDY    41  34  75 E5        30.18S
FARIBAULT      CLOUDY    45  36  70 E6        30.18F
$$

...ELSEWHERE IN MINNESOTA...


CITY           SKY/WX    TMP DP  RH WIND       PRES   REMARKS
MINNEAPOLIS    CLOUDY    45  30  55 SE6       30.19S
INTNL FALLS    PTCLDY    32  24  72 E7        30.27R WCI  26
DULUTH         CLOUDY    33  25  72 E14       30.26F WCI  23
RED WING       CLOUDY    36  30  80 CALM      30.20F
REDWOOD FALLS  CLOUDY    45  32  60 CALM      30.16F
MANKATO        CLOUDY    44  35  70 E5        30.18S
WORTHINGTON    MOCLDY    38  36  92 N3        30.15S
FAIRMONT       CLOUDY    41  37  86 E3        30.16S
$$

...SOUTHWEST WISCONSIN...


CITY           SKY/WX    TMP DP  RH WIND       PRES   REMARKS
LA CROSSE      PTCLDY    41  34  76 E7        30.22R
PRAIRIE DU CHI CLEAR     39  35  85 E3        30.22R
BOSCOBEL       CLEAR     33  32  96 CALM      30.22S FOG
LONE ROCK      CLEAR     34  31  88 E5        30.23R FOG     WCI  30
PLATTEVILLE    PTCLDY    37  37 100 E6        30.21R WCI  33
FORT MC COY    PTCLDY    28  27  97 CALM      30.24S
CAMP DOUGLAS   PTCLDY    29  28  97 CALM      30.24R
MAUSTON-NEW LI SUNNY     31  30  96 CALM      30.24R
VIROQUA        FAIR      37  32  84 CALM      30.20F
WIS DELLS      CLEAR     35  33  92 NE3       30.24R
$$

...ELSEWHERE IN WISCONSIN...


CITY           SKY/WX    TMP DP  RH WIND       PRES   REMARKS
MILWAUKEE      FOG       32  30  92 E3        30.25S VSB 1/4
MADISON        FOG       31  30  96 CALM      30.24R VSB 1/4
GREEN BAY      CLEAR     34  33  96 NE8       30.28R WCI  27
EAU CLAIRE     CLOUDY    36  30  79 NE6       30.23R WCI  31
BLACK RVR FLS  FAIR      29  29 100 CALM      30.24R
MEDFORD        MOCLDY    31  27  86 E5        30.25R WCI  26
WAUSAU         CLOUDY    31  28  89 CALM      30.25R
WIS RAPIDS     CLOUDY    33  30  88 CALM      30.26R
MARSHFIELD     CLOUDY    36  28  73 NE3       30.24R
RICE LAKE      CLOUDY    30  28  93 CALM      30.24S
$$

...NORTHEAST IOWA...


CITY           SKY/WX    TMP DP  RH WIND       PRES   REMARKS
WATERLOO       CLOUDY    40  38  93 E6        30.16R
DUBUQUE        CLOUDY    38  36  92 NE8       30.19R WCI  32
DECORAH        PTCLDY    41  37  87 E8        30.18S
MASON CITY     MOCLDY    40  37  89 NE7       30.16F
CHARLES CITY   CLOUDY    43  39  87 E12       30.16F
OELWEIN        CLOUDY    39  39 100 E12       30.17S WCI  32
$$

...ELSEWHERE IN IOWA...


CITY           SKY/WX    TMP DP  RH WIND       PRES   REMARKS
DES MOINES     CLOUDY    45  40  82 NE12      30.10S
IOWA CITY      CLOUDY    43  39  86 E12       30.17R
FORT DODGE     CLOUDY    43  37  81 E6        30.14R
MARSHALLTOWN   CLOUDY    41  40  96 E9        30.12F
CEDAR RAPIDS   CLOUDY    39  39 100 E15       30.16R WCI  31
$$

...NORTHERN ILLINOIS...


CITY           SKY/WX    TMP DP  RH WIND       PRES   REMARKS
CHICAGO-OHARE  FOG       35  33  92 NE6       30.22S VSB 1   WCI  30
CHICAGO-MIDWAY CLOUDY    36  35  96 NE9       30.22F FOG     WCI  29
MOLINE         CLOUDY    43  39  86 E9        30.17R
ROCKFORD       FOG       37  35  92 E7        30.23R VSB 3/4 WCI  32
PEORIA         CLOUDY    44  42  93 E9        30.15R FOG
$$

NOTE: "FAIR" INDICATES FEW OR NO CLOUDS BELOW 12,000 FEET WITH NO
SIGNIFICANT WEATHER AND/OR OBSTRUCTIONS TO VISIBILITY. WIND
SPEEDS ARE IN MILES-PER-HOUR.




USA.gov is the U.S. government's official web portal to all federal, state and local government web resources and services.